Weather History for KPHF - December, 2012

Change the Weather History Date:

Tuesday, December 18, 2012

  Actual Average Record
Temperature  
Mean Temperature 57 °F -  
Max Temperature 64 °F 50 °F 77 °F (2006)
Min Temperature 46 °F 30 °F 15 °F (1979)
Degree Days  
Heating Degree Days 8    
Growing Degree Days 7 (Base 50)    
Moisture  
Dew Point 45 °F    
Average Humidity 64    
Maximum Humidity 84    
Minimum Humidity 41    
Precipitation  
Precipitation 0.00 in - - ()
Sea Level Pressure  
Sea Level Pressure 29.67 in    
Wind  
Wind Speed 11 mph (WSW)    
Max Wind Speed 14 mph    
Max Gust Speed 20 mph    
Visibility 10 miles    
Events      
Averages and records for this station are not official NWS values.
T = Trace of Precipitation, MM = Missing Value Source: NWS Daily Summary

Daily Weather History Graph

Daily Weather History Graph

Search for Another Location

Airport or City:

Trip Planner

Search our weather history database for the weather conditions in past years. The results will help you decide how hot, cold, wet, or windy it might be!

Date:

Astronomy

Dec. 18, 2012 Rise Set
Actual Time 7:14 AM EST 4:51 PM EST
Civil Twilight 6:45 AM EST 5:20 PM EST
Nautical Twilight 6:12 AM EST 5:53 PM EST
Astronomical Twilight 5:41 AM EST 6:24 PM EST
Moon 11:00 AM EST (12/18) 11:06 PM EST (12/18)
Length of Visible Light 10h 34m
Length of Day
9h 36m
Waxing Crescent, 34% of the Moon is Illuminated
Dec 18
Waxing Crescent
Dec 20
First Quarter
Dec 28
Full
Jan 4
Last Quarter
Jan 11
New

Hourly Weather History & Observations

Time (EST) Temp. Dew Point Humidity Pressure Visibility Wind Dir Wind Speed Gust Speed Precip Events Conditions
12:31 AM 60.8 °F 51.8 °F 72% 29.62 in 10.0 mi SW 10.4 mph - N/A   Overcast
12:54 AM 61.0 °F 52.0 °F 72% 29.62 in 10.0 mi SW 12.7 mph - N/A   Overcast
1:07 AM 60.8 °F 51.8 °F 72% 29.62 in 10.0 mi SSW 12.7 mph - N/A   Overcast
1:26 AM 60.8 °F 51.8 °F 72% 29.62 in 10.0 mi SSW 11.5 mph - N/A   Overcast
1:54 AM 61.0 °F 52.0 °F 72% 29.62 in 10.0 mi SSW 11.5 mph - N/A   Overcast
2:54 AM 60.1 °F 52.0 °F 75% 29.63 in 10.0 mi SW 12.7 mph - N/A   Overcast
3:44 AM 57.2 °F 51.8 °F 82% 29.61 in 10.0 mi SW 11.5 mph - N/A   Scattered Clouds
3:54 AM 57.9 °F 52.0 °F 81% 29.61 in 10.0 mi SW 11.5 mph - N/A   Partly Cloudy
4:54 AM 57.0 °F 51.1 °F 81% 29.60 in 10.0 mi SW 10.4 mph - N/A   Clear
5:54 AM 55.9 °F 51.1 °F 84% 29.61 in 10.0 mi SW 6.9 mph - N/A   Clear
6:54 AM 55.9 °F 51.1 °F 84% 29.63 in 10.0 mi SW 9.2 mph - N/A   Clear
7:52 AM 57.2 °F 51.8 °F 82% 29.65 in 10.0 mi SW 12.7 mph - N/A   Mostly Cloudy
7:54 AM 57.0 °F 52.0 °F 83% 29.65 in 10.0 mi SW 11.5 mph - N/A   Overcast
8:52 AM 57.2 °F 51.8 °F 82% 29.65 in 10.0 mi WSW 12.7 mph - N/A   Overcast
8:54 AM 57.9 °F 52.0 °F 81% 29.65 in 10.0 mi WSW 10.4 mph - N/A   Overcast
9:54 AM 60.1 °F 52.0 °F 75% 29.65 in 10.0 mi West 9.2 mph - N/A   Overcast
10:54 AM 63.0 °F 48.0 °F 58% 29.65 in 10.0 mi West 13.8 mph - N/A   Overcast
11:54 AM 64.0 °F 46.0 °F 52% 29.62 in 10.0 mi West 8.1 mph - N/A   Mostly Cloudy
12:54 PM 64.0 °F 43.0 °F 46% 29.60 in 10.0 mi WNW 10.4 mph 19.6 mph N/A   Mostly Cloudy
1:54 PM 63.0 °F 42.1 °F 46% 29.61 in 10.0 mi West 10.4 mph - N/A   Overcast
2:54 PM 62.1 °F 39.9 °F 44% 29.63 in 10.0 mi WNW 12.7 mph 18.4 mph N/A   Mostly Cloudy
3:54 PM 62.1 °F 37.9 °F 41% 29.64 in 10.0 mi WNW 10.4 mph - N/A   Clear
4:54 PM 59.0 °F 37.0 °F 44% 29.67 in 10.0 mi West 10.4 mph - N/A   Mostly Cloudy
5:54 PM 57.0 °F 37.0 °F 47% 29.70 in 10.0 mi WNW 9.2 mph - N/A   Scattered Clouds
6:54 PM 55.0 °F 34.0 °F 45% 29.73 in 10.0 mi WNW 4.6 mph - N/A   Scattered Clouds
7:54 PM 55.0 °F 32.0 °F 42% 29.78 in 10.0 mi WNW 8.1 mph - N/A   Clear
8:54 PM 54.0 °F 33.1 °F 45% 29.80 in 10.0 mi WNW 9.2 mph - N/A   Clear
9:54 PM 51.1 °F 34.0 °F 52% 29.83 in 10.0 mi West 8.1 mph - N/A   Clear
10:54 PM 50.0 °F 32.0 °F 50% 29.84 in 10.0 mi WNW 9.2 mph - N/A   Clear
11:54 PM 46.9 °F 33.1 °F 59% 29.84 in 10.0 mi WSW 6.9 mph - N/A   Clear